Simultaneous Nadir Overpasses (SNOs) Predictions

Prediction of SNOs between NOAA-19 and NPP Satellite Orbit:

Table of predicted SNOs for the next 14.0 days since TLE Epoch: 3/27/2015
Index Date (NOAA-19) Time (NOAA-19) Lat,Lon (NOAA-19) SZA (NOAA-19 ) Date (NPP) Time (NPP) Lat,Lon (NPP) SZA (NPP ) Distance(km) Time Diff (sec)
1 04/09/2015 13:14:23 -81.00, 110.05 103.11 04/09/2015 13:15:28 -81.00, 109.93 103.13 2.08 65
2 04/09/2015 14:05:19 81.00, -82.78 76.89 04/09/2015 14:06:13 81.01, -82.86 76.88 1.49 54
3 04/09/2015 14:56:26 -81.00, 84.47 103.13 04/09/2015 14:56:58 -81.01, 84.48 103.14 0.41 32
4 04/09/2015 15:47:21 81.00,-107.99 76.83 04/09/2015 15:47:42 80.99,-107.95 76.81 0.78 21
5 04/09/2015 16:38:28 -81.00, 59.26 103.20 04/09/2015 16:38:27 -80.99, 59.39 103.21 2.33 1
6 04/09/2015
